Regional Weather Roundup
Issued by NWS

Home | Current Version | Previous Version | Graphics & Text | Print | Product List | Glossary On
Versions: 1 2 3 4 5 6 7 8 9 10 11 12 13 14 15 16 17 18 19 20 21 22 23 24 25 26 27 28 29 30 31 32 33 34 35 36 37 38 39 40 41 42 43 44 45 46 47 48 49 50
083
ASUS43 KMKX 210500
RWRWI

WISCONSIN REGIONAL WEATHER ROUNDUP
NATIONAL WEATHER SERVICE MILWAUKEE/SULLIVAN WI
1200 AM CDT FRI JUL 21 2017

NOTE: "FAIR" INDICATES FEW OR NO CLOUDS BELOW 12,000 FEET WITH NO
SIGNIFICANT WEATHER AND/OR OBSTRUCTIONS TO VISIBILITY.

WIZ001-002-006>008-014>016-023>028-210600-
NORTHWEST WISCONSIN

CITY           SKY/WX    TMP DP  RH WIND       PRES   REMARKS
SUPERIOR ARPT  NOT AVBL
ASHLAND        CLEAR     66  62  87 W3        29.97S
HAYWARD        PTCLDY    63  60  90 CALM      30.00R
SIREN          CLOUDY    66  64  93 CALM      29.98F
CUMBERLAND     CLEAR     64  63  94 CALM      30.00S FOG
RICE LAKE      FOG       64  64  97 CALM      30.01S VSB 1/4
CHETEK         CLEAR     65  65 100 CALM      29.99S
LADYSMITH      PTCLDY    66  64  94 CALM      30.02S
EAU CLAIRE     FOG       66  65  96 CALM      29.96F VSB 1/4
MENOMONIE      CLEAR     68  67  98 CALM      29.98S FOG
NEW RICHMOND   PTCLDY    66  66 100 CALM      29.98F FOG
OSCEOLA        PTCLDY    66  66 100 CALM      30.00S
$$

WIZ003>005-009-010-017-018-210600-
NORTH CENTRAL WISCONSIN

CITY           SKY/WX    TMP DP  RH WIND       PRES   REMARKS
MANITOWISH WTR   N/A     59  59 100 CALM      30.01S FOG
ARBOR VITAE    CLEAR     63  61  92 CALM      30.02R
WOODRUFF       CLEAR     63  61  92 CALM      30.02R
RHINELANDER    CLEAR     62  62 100 W3        30.02S
EAGLE RIVER    CLEAR     59  59 100 CALM      30.01S FOG
LAND O LAKES   CLEAR     58  58 100 CALM      30.03R
PHILLIPS       CLOUDY    62  62 100 CALM      30.01R FOG
TOMAHAWK         N/A     59  58  96 CALM      30.02S
MEDFORD        CLEAR     65  64  98 CALM      30.01S
MERRILL        PTCLDY    62  62 100 CALM      30.00F
$$

WIZ029-030-035-036-043>047-210600-
CENTRAL WISCONSIN

CITY           SKY/WX    TMP DP  RH WIND       PRES   REMARKS
WAUSAU         CLEAR     69  65  86 N6        29.98S
MOSINEE        CLEAR     68  66  94 NW8       29.99F
MARSHFIELD     CLEAR     68  63  84 CALM      29.99S
STEVENS POINT  CLEAR     63  63 100 CALM      29.99F
WAUPACA        CLEAR     69  68  96 CALM      29.98S
WAUTOMA        CLEAR     67  66  97 CALM      29.98F
WISC RAPIDS    CLEAR     65  64  97 CALM      29.99F
CAMP DOUGLAS   FOG       64  64 100 E3        29.98S VSB 1/2
$$

WIZ011>013-019>022-031-037>040-048>050-210600-
NORTHEAST WISCONSIN

CITY           SKY/WX    TMP DP  RH WIND       PRES   REMARKS
ANTIGO         CLEAR     63  61  93 CALM      30.01S
SHAWANO        CLEAR     67  64  89 CALM      29.96S
OCONTO         CLEAR     65  64  94 CALM      29.94S
STURGEON BAY     N/A     71  68  90 NW3       29.95S
GREEN BAY      CLEAR     69  68  96 W3        29.95S
MANITOWOC      NOT AVBL
APPLETON       CLEAR     70  61  73 W9        29.96S
CLINTONVILLE   CLEAR     68  64  88 CALM      29.96F
OSHKOSH        CLEAR     70  67  90 CALM      29.96F
$$

WIZ032>034-041-042-053>061-210600-
SOUTHWEST WISCONSIN

CITY           SKY/WX    TMP DP  RH WIND       PRES   REMARKS
LA CROSSE      CLEAR     73  70  90 S6        29.96F
SPARTA         CLEAR     64  64 100 SE3       29.98S
VIROQUA        CLEAR     70  70 100 S6        30.02R
BOSCOBEL       FOG       70  69  97 CALM      30.00R VSB 1/4
PRAIRIE DU CHI FOG       71  69  93 CALM      29.99R VSB 1
PLATTEVILLE    CLOUDY    75  73  96 E6        30.01R
$$

WIZ056-057-062-063-064-067-068-210600-
SOUTH CENTRAL WISCONSIN

CITY           SKY/WX    TMP DP  RH WIND       PRES   REMARKS
REEDSBURG      CLEAR     67  67 100 CALM      29.99S FOG
BARABOO/DELLS  CLEAR     68  66  94 CALM      29.99S
LONE ROCK      CLOUDY    69  68  96 W3        29.99R FOG
MINERAL POINT  CLOUDY    73  72  94 E3        30.01R
MADISON        CLEAR     69  68  96 CALM      29.98F
MIDDLETON      CLEAR     68  68 100 CALM      30.00S
WATERTOWN      CLEAR     70  70 100 CALM      29.98S
MONROE         CLOUDY    75  70  83 CALM      30.00R
JANESVILLE       N/A     73  73 100 CALM      29.98R FOG
$$

WIZ051-052-058>065-066-070>072-210600-
SOUTHEAST WISCONSIN

CITY           SKY/WX    TMP DP  RH WIND       PRES   REMARKS
MILWAUKEE      PTCLDY    76  70  82 NW3       29.97F
WAUKESHA       CLEAR     70  68  94 S5        30.00R
MILWAUKEE/TIMM CLEAR     72  66  83 CALM      29.98F
RACINE         CLEAR     70  68  93 CALM      29.99S
KENOSHA        CLEAR     71  68  90 SW5       29.98S
FOND DU LAC    CLEAR     70  66  87 SW5       29.97F
SHEBOYGAN      CLEAR     67  67 100 CALM      29.96F FOG
WEST BEND      CLEAR     68  68 100 CALM      29.98S
JUNEAU         CLEAR     69  68  94 CALM      29.99F
$$

LSZ147-162-210600-
LAKE SUPERIOR

STATION/POSITION TIME  TEMP    WIND        PRES    WAVE
                       AIR SEA DIR/SP/G            HT/PER
                 (UTC) (F)     (DEG/KT/KT) (MB)    (FT/S)
W MID LAKE BUOY  0350   56 48  290/  6/  8 1014.1R   1
DEVILS ISLAND    0400   70     250/  8/  9 1014.0S
SAXON HARBOR     0430   70     200/  6/ 10 1013.9S
$$

LMZ867-665-643>646-210600-
LAKE MICHIGAN

STATION/POSITION TIME  TEMP    WIND        PRES    WAVE
                       AIR SEA DIR/SP/G            HT/PER
                 (UTC) (F)     (DEG/KT/KT) (MB)    (FT/S)
CHAMBERS ISLAND  0440   72      20/  7/  9 1013.5S
S GREEN BAY BUOY 0430   76 74  300/  8/  8 1013.7R
N MID LAKE BUOY  0350   68 65  160/  4/  8 1014.4F   1/ 5
NORTHPORT PIER   0440   70     350/  2/  5 1013.9R
KEWAUNEE LAKESHO 0424   72     250/  3/  5 1013.5
SHEBOYGAN LAKESH 0400   71     190/  6/  6 1014.1R
PORT WASHINGTON  0440   72     270/  2/  3 1015.6S
ATWATER BUOY     0309   71 69  160/  4/  6 1014.7F
MILWAUKEE LAKESH 0430   71     160/  2/  2   N/A
S MID LAKE BUOY  0350   71 71  310/  4/  4 1014.5R   1
KENOSHA   LAKESH 0400   76     220/  5/  6 1014.9
$$

TC  - TEMPERATURE IN CELSIUS
VSB - VISIBILITY IN STATUTE MILES
WCI - WIND CHILL INDEX
HX  - HEAT INDEX





USA.gov is the U.S. government's official web portal to all federal, state and local government web resources and services.